Time,TemperatureF,DewpointF,PressureIn,WindDirection,WindDirectionDegrees,WindSpeedMPH,WindSpeedGustMPH,Humidity,HourlyPrecipIn,Conditions,Clouds,dailyrainin,SolarRadiationWatts/m^2,SoftwareType,DateUTC
2013-10-20 00:44:00,40.0,38.0,-100.00,SSW,205,4.0,13.0,92,-99.99,,,0.11,0.000000,,2013-10-20 04:44:00,
2013-10-20 00:54:00,40.0,38.0,-100.00,SSW,205,4.0,13.0,92,-99.99,,,0.11,0.000000,,2013-10-20 04:54:00,
2013-10-20 01:04:00,40.0,38.0,-100.00,SSW,205,4.0,13.0,92,-99.99,,,0.11,0.000000,,2013-10-20 05:04:00,
2013-10-20 01:43:00,41.0,39.0,-100.00,SW,235,4.0,11.0,91,0.01,,,0.12,0.000000,,2013-10-20 05:43:00,
2013-10-20 01:52:00,41.0,39.0,-100.00,SW,235,4.0,11.0,91,0.01,,,0.12,0.000000,,2013-10-20 05:52:00,
2013-10-20 02:02:00,41.0,39.0,-100.00,SW,235,4.0,11.0,91,0.01,,,0.12,0.000000,,2013-10-20 06:02:00,
2013-10-20 02:42:00,40.0,37.0,-100.00,West,279,4.0,13.0,88,0.00,,,0.12,0.000000,,2013-10-20 06:42:00,
2013-10-20 02:52:00,40.0,37.0,-100.00,West,279,4.0,13.0,88,0.00,,,0.12,0.000000,,2013-10-20 06:52:00,
2013-10-20 03:02:00,40.0,37.0,-100.00,West,279,4.0,13.0,88,0.00,,,0.12,0.000000,,2013-10-20 07:02:00,
2013-10-20 03:42:00,40.0,38.0,-100.00,NW,326,0.0,10.0,92,0.00,,,0.12,0.000000,,2013-10-20 07:42:00,
2013-10-20 03:52:00,40.0,38.0,-100.00,NW,326,0.0,10.0,92,0.00,,,0.12,0.000000,,2013-10-20 07:52:00,
2013-10-20 04:02:00,40.0,38.0,-100.00,NW,326,0.0,10.0,92,0.00,,,0.12,0.000000,,2013-10-20 08:02:00,
2013-10-20 04:42:00,40.0,37.0,-100.00,SSW,208,2.0,9.0,89,0.00,,,0.12,0.000000,,2013-10-20 08:42:00,
2013-10-20 04:52:00,40.0,37.0,-100.00,SSW,208,2.0,9.0,89,0.00,,,0.12,0.000000,,2013-10-20 08:52:00,
2013-10-20 05:02:00,40.0,37.0,-100.00,SSW,208,2.0,9.0,89,0.00,,,0.12,0.000000,,2013-10-20 09:02:00,
2013-10-20 05:43:00,40.0,37.0,-100.00,South,191,3.0,8.0,88,0.00,,,0.12,0.000000,,2013-10-20 09:43:00,
2013-10-20 05:53:00,40.0,37.0,-100.00,South,191,3.0,8.0,88,0.00,,,0.12,0.000000,,2013-10-20 09:53:00,
2013-10-20 06:03:00,40.0,37.0,-100.00,South,191,3.0,8.0,88,0.00,,,0.12,0.000000,,2013-10-20 10:03:00,
2013-10-20 06:43:00,39.0,36.0,-100.00,South,180,3.0,8.0,89,0.00,,,0.12,0.000000,,2013-10-20 10:43:00,
2013-10-20 06:53:00,39.0,36.0,-100.00,South,180,3.0,8.0,89,0.00,,,0.12,0.000000,,2013-10-20 10:53:00,
2013-10-20 07:02:00,39.0,36.0,-100.00,South,180,3.0,8.0,89,0.00,,,0.12,0.000000,,2013-10-20 11:02:00,
2013-10-20 07:43:00,38.0,35.0,-100.00,South,172,4.0,7.0,88,0.00,,,0.12,0.000000,,2013-10-20 11:43:00,
2013-10-20 07:52:00,38.0,35.0,-100.00,South,172,4.0,7.0,88,0.00,,,0.12,0.000000,,2013-10-20 11:52:00,
2013-10-20 08:02:00,38.0,35.0,-100.00,South,172,4.0,7.0,88,0.00,,,0.12,0.000000,,2013-10-20 12:02:00,
2013-10-20 08:42:00,39.0,36.0,-100.00,South,176,4.0,8.0,88,0.00,,,0.12,10.000000,,2013-10-20 12:42:00,
2013-10-20 08:52:00,39.0,36.0,-100.00,South,176,4.0,8.0,88,0.00,,,0.12,10.000000,,2013-10-20 12:52:00,
2013-10-20 09:02:00,39.0,36.0,-100.00,South,176,4.0,8.0,88,0.00,,,0.12,10.000000,,2013-10-20 13:02:00,
2013-10-20 09:42:00,39.0,36.0,-100.00,SSW,207,4.0,9.0,89,0.00,,,-99.99,35.000000,,2013-10-20 13:42:00,
2013-10-20 09:52:00,39.0,36.0,-100.00,SSW,207,4.0,9.0,89,0.00,,,-99.99,35.000000,,2013-10-20 13:52:00,
2013-10-20 10:02:00,39.0,36.0,-100.00,SSW,207,4.0,9.0,89,0.00,,,-99.99,35.000000,,2013-10-20 14:02:00,
2013-10-20 10:42:00,45.0,39.0,-100.00,SSW,201,4.0,8.0,78,0.00,,,0.12,213.000000,,2013-10-20 14:42:00,
2013-10-20 10:52:00,45.0,39.0,-100.00,SSW,201,4.0,8.0,78,0.00,,,0.12,213.000000,,2013-10-20 14:52:00,
2013-10-20 11:02:00,45.0,39.0,-100.00,SSW,201,4.0,8.0,78,0.00,,,0.12,213.000000,,2013-10-20 15:02:00,
2013-10-20 11:44:00,49.0,38.0,-100.00,South,183,6.0,12.0,66,0.00,,,0.12,517.000000,,2013-10-20 15:44:00,
2013-10-20 11:54:00,49.0,38.0,-100.00,South,183,6.0,12.0,66,0.00,,,0.12,517.000000,,2013-10-20 15:54:00,
2013-10-20 12:04:00,49.0,38.0,-100.00,South,183,6.0,12.0,66,0.00,,,0.12,517.000000,,2013-10-20 16:04:00,
2013-10-20 12:43:00,53.0,39.0,-100.00,SW,217,5.0,11.0,59,0.01,,,0.13,659.000000,,2013-10-20 16:43:00,
2013-10-20 12:54:00,53.0,39.0,-100.00,SW,217,5.0,11.0,59,0.01,,,0.13,659.000000,,2013-10-20 16:54:00,
2013-10-20 13:03:00,53.0,39.0,-100.00,SW,217,5.0,11.0,59,0.01,,,0.13,659.000000,,2013-10-20 17:03:00,
2013-10-20 13:42:00,56.0,38.0,-100.00,WSW,238,4.0,12.0,51,0.00,,,0.13,609.000000,,2013-10-20 17:42:00,
2013-10-20 13:52:00,56.0,38.0,-100.00,WSW,238,4.0,12.0,51,0.00,,,0.13,609.000000,,2013-10-20 17:52:00,
2013-10-20 14:02:00,56.0,38.0,-100.00,WSW,238,4.0,12.0,51,0.00,,,0.13,609.000000,,2013-10-20 18:02:00,
2013-10-20 14:42:00,55.0,36.0,-100.00,West,264,5.0,14.0,48,0.00,,,0.13,299.000000,,2013-10-20 18:42:00,
2013-10-20 14:52:00,55.0,36.0,-100.00,West,264,5.0,14.0,48,0.00,,,0.13,299.000000,,2013-10-20 18:52:00,
2013-10-20 15:02:00,55.0,36.0,-100.00,West,264,5.0,14.0,48,0.00,,,0.13,299.000000,,2013-10-20 19:02:00,
2013-10-20 15:42:00,53.0,36.0,-100.00,WNW,295,5.0,12.0,52,0.00,,,0.13,144.000000,,2013-10-20 19:42:00,
2013-10-20 15:52:00,53.0,36.0,-100.00,WNW,295,5.0,12.0,52,0.00,,,0.13,144.000000,,2013-10-20 19:52:00,
2013-10-20 16:02:00,53.0,36.0,-100.00,WNW,295,5.0,12.0,52,0.00,,,0.13,144.000000,,2013-10-20 20:02:00,
2013-10-20 16:43:00,53.0,35.0,-100.00,West,260,5.0,13.0,51,0.00,,,0.13,226.000000,,2013-10-20 20:43:00,
2013-10-20 16:52:00,53.0,35.0,-100.00,West,260,5.0,13.0,51,0.00,,,0.13,226.000000,,2013-10-20 20:52:00,
2013-10-20 17:02:00,53.0,35.0,-100.00,West,260,5.0,13.0,51,0.00,,,0.13,226.000000,,2013-10-20 21:02:00,
2013-10-20 17:44:00,54.0,36.0,-100.00,SSW,193,7.0,12.0,50,0.00,,,0.13,179.000000,,2013-10-20 21:44:00,
2013-10-20 17:54:00,54.0,36.0,-100.00,SSW,193,7.0,12.0,50,0.00,,,0.13,179.000000,,2013-10-20 21:54:00,
2013-10-20 18:04:00,54.0,36.0,-100.00,SSW,193,7.0,12.0,50,0.00,,,0.13,179.000000,,2013-10-20 22:04:00,
2013-10-20 18:43:00,51.0,35.0,-100.00,SSW,192,2.0,13.0,55,0.00,,,0.11,69.000000,,2013-10-20 22:43:00,
2013-10-20 18:53:00,51.0,35.0,-100.00,SSW,192,2.0,13.0,55,0.00,,,0.11,69.000000,,2013-10-20 22:53:00,
2013-10-20 19:03:00,51.0,35.0,-100.00,SSW,192,2.0,13.0,55,0.00,,,0.11,69.000000,,2013-10-20 23:03:00,
2013-10-20 19:43:00,48.0,36.0,-100.00,SE,144,2.0,5.0,62,0.00,,,0.05,4.000000,,2013-10-20 23:43:00,
2013-10-20 19:52:00,48.0,36.0,-100.00,SE,144,2.0,5.0,62,0.00,,,0.05,4.000000,,2013-10-20 23:52:00,
2013-10-20 20:02:00,48.0,36.0,-100.00,SE,144,2.0,5.0,62,0.00,,,0.05,4.000000,,2013-10-21 00:02:00,
2013-10-20 20:43:00,45.0,36.0,-100.00,SSE,159,2.0,5.0,70,0.00,,,0.04,0.000000,,2013-10-21 00:43:00,
2013-10-20 20:52:00,45.0,36.0,-100.00,SSE,159,2.0,5.0,70,0.00,,,0.04,0.000000,,2013-10-21 00:52:00,
2013-10-20 21:02:00,45.0,36.0,-100.00,SSE,159,2.0,5.0,70,0.00,,,0.04,0.000000,,2013-10-21 01:02:00,
2013-10-20 21:42:00,45.0,36.0,-100.00,ESE,112,1.0,5.0,71,0.00,,,0.04,0.000000,,2013-10-21 01:42:00,
2013-10-20 21:52:00,45.0,36.0,-100.00,ESE,112,1.0,5.0,71,0.00,,,0.04,0.000000,,2013-10-21 01:52:00,
2013-10-20 22:02:00,45.0,36.0,-100.00,ESE,112,1.0,5.0,71,0.00,,,0.04,0.000000,,2013-10-21 02:02:00,
2013-10-20 22:42:00,42.0,36.0,-100.00,South,182,2.0,5.0,79,0.00,,,0.03,0.000000,,2013-10-21 02:42:00,
2013-10-20 22:52:00,42.0,36.0,-100.00,South,182,2.0,5.0,79,0.00,,,0.03,0.000000,,2013-10-21 02:52:00,
2013-10-20 23:03:00,42.0,36.0,-100.00,South,182,2.0,5.0,79,0.00,,,0.03,0.000000,,2013-10-21 03:03:00,